Regional Weather Roundup
Issued by NWS Wakefield, VA

Home | Current Version | Previous Version | Graphics & Text | Print | Product List | Glossary On
Versions: 1 2 3 4 5 6 7 8 9 10 11 12 13 14 15 16 17 18 19 20 21 22 23 24 25 26 27 28 29 30 31 32 33 34 35 36 37 38 39 40 41 42 43 44 45 46 47 48 49 50
000
ASUS41 KAKQ 161415
RWRAKQ

REGIONAL WEATHER ROUNDUP
NATIONAL WEATHER SERVICE WAKEFIELD VA
900 AM EST MON JAN 16 2017

Note: "fair" indicates few or no clouds below 12,000 feet with no
significant weather and/or obstructions to visibility. * = Denotes
station may not report precipitation (e.g., rain,snow,etc.),
thunder or fog.

VAZ042-051-052>054-056-161500-
NORTHERN VIRGINIA

CITY           SKY/WX    TMP DP  RH WIND       PRES   REMARKS
WASH NATIONAL  CLOUDY    39  29  67 NE3       30.49R
DULLES         CLOUDY    38  27  64 SE3       30.46R
FORT BELVOIR   CLOUDY    39  28  64 SE3       30.48R
QUANTICO       CLOUDY    40  34  79 CALM      30.49R
FREDERICKSBRG* CLOUDY    39  33  78 CALM      30.48R
STAFFORD*      CLOUDY    39  31  74 CALM      30.51R
WARRENTON      CLOUDY    41  28  59 CALM      30.45S
CULPEPER*      CLOUDY    40  34  78 CALM      30.47R
MANASSAS*      CLOUDY   N/A N/A N/A SE6       30.47R
LEESBURG*      CLOUDY    37  30  75 MISG      30.46S
WINCHESTER     CLOUDY    32  27  80 CALM      30.42S
FRONT ROYAL*   NOT AVBL
LURAY*         CLOUDY    37  30  75 CALM      30.41R
$$

VAZ048-049-060>072-079>083-161500-
CENTRAL AND SOUTH CENTRAL VIRGINIA

CITY           SKY/WX    TMP DP  RH WIND       PRES   REMARKS
RICHMOND       CLOUDY    38  35  89 CALM      30.47R
CHESTERFIELD*  CLOUDY    39  23  52 CALM      30.47S
PETERSBURG*    CLOUDY    37  34  87 E3        30.47S
HANOVER        CLOUDY    39  36  89 CALM      30.48R FOG
TAPPAHANNOCK*  CLOUDY    39  34  82 CALM      30.48R
QUINTON*       CLOUDY    37  37  97 MISG      30.47R
CHARLOTTSVILLE CLOUDY    40  37  89 CALM      30.43R FOG
GORDONSVILLE*  CLOUDY    39  39 100 CALM      30.44R FOG
ORANGE*          N/A     39  39 100 CALM      30.47R
LOUISA*        CLOUDY    43  41  93 CALM      30.43S
BUMPASS*       CLOUDY    38  38 100 CALM      30.45S
FARMVILLE*     CLOUDY    41  41  99 CALM      30.44R FOG
CREWE*         CLOUDY    38  38 100 S3        30.45R
FORT PICKETT*  CLOUDY    37  33  88 E5        30.46R
CHASE CITY*    CLOUDY    38  37  94 CALM      30.45R
CLARKSVILLE*   CLOUDY    39  34  81 E5        30.44S
SOUTH HILL*    CLOUDY    37  36  95 NE3       30.50S
LAWRENCEVILLE* CLOUDY    37  35  93 CALM      30.46R
EMPORIA*       CLOUDY    36  36 100 CALM      30.49R
$$

VAZ088>098-161500-
SOUTHEAST VIRGINIA

CITY           SKY/WX    TMP DP  RH WIND       PRES   REMARKS
NORFOLK        CLOUDY    42  33  70 N5        30.47R
VIRGINIA BEACH CLOUDY    42  34  73 NE5       30.46R
NORFOLK NAVAL  CLOUDY    42  34  73 NE5       30.49R
WEST POINT*    CLOUDY    39  36  87 CALM      30.50R
SALUDA*        CLOUDY    39  34  80 CALM      30.47S
NEWPORT NEWS   CLOUDY    41  35  79 CALM      30.48R
LANGLEY AFB    CLOUDY    41  33  75 CALM      30.47R
FORT EUSTIS    CLOUDY    41  35  81 CALM      30.45R
WILLIAMSBURG*  CLOUDY    43  37  81 CALM      30.48S
HR EXEC AP*    CLOUDY    37  36  93 CALM      30.47R
FRANKLIN*      CLOUDY    38  36  92 CALM      30.48R
US460-WAKEFLD  CLOUDY    38  35  89 CALM      30.47R
$$

VAZ020-022-025-037-045-161500-
WEST CENTRAL AND SOUTHWEST VIRGINIA

CITY           SKY/WX    TMP DP  RH WIND       PRES   REMARKS
STAUNTON*      CLOUDY    37  36  93 CALM      30.42R
WAYNESBORO*    CLOUDY    38  37  97 CALM      30.40R
HOT SPRINGS VA FOG       37  37 100 CALM      30.30R VSB 1/2
LYNCHBURG      CLOUDY    39  38  96 CALM      30.44R
DANVILLE       CLOUDY    43  33  68 E3        30.44R
SOUTH BOSTON*  CLOUDY    42  37  83 E3        30.45R
MARTINSVILLE   CLOUDY    42  36  79 CALM      30.45R
ROANOKE        CLOUDY    39  37  92 SE6       30.44R
BLACKSBURG     FOG       39  39 100 E5        30.40R VSB<1/4
DUBLIN*        FOG       42  42 100 NE6       30.38R VSB 1/4
MARION*        FOG       48  47  96 NE6       30.37R VSB<1/4
HILLSVILLE*    FOG       43  43 100 CALM      30.35R VSB 1/2
RICHLANDS*     FOG      N/A N/A N/A CALM      30.32R VSB<1/4
WISE*          CLOUDY    54  54 100 CALM      30.33R
ABINGDON*      CLOUDY    56  56 100 E5        30.32S FOG
$$

MDZ021>025-VAZ099-100-161500-
SOUTHERN MARYLAND AND THE DELMARVA PENINSULA

CITY           SKY/WX    TMP DP  RH WIND       PRES   REMARKS
PATUXENT RIVER CLOUDY    38  31  76 E7        30.48R
BAY BRIDGE APT CLOUDY    36  25  64 MISG      30.49R
LEONARDTOWN    CLOUDY    37  30  75 CALM      30.50R
DOVER          SUNNY     32  30  95 N3        30.48R
GEORGETOWN     MOSUNNY   33  28  81 NE5       30.48R
EASTON         CLOUDY    36  27  69 MISG      30.52R
CAMBRIDGE      CLOUDY    34  28  80 CALM      30.49R
SALISBURY      CLOUDY    35  27  72 NE5       30.48R
OCEAN CITY     MOSUNNY   38  32  79 N3        30.49R
WALLOPS ISLAND CLOUDY    38  32  79 NE5       30.48R
ACCOMACK*      CLOUDY    40  32  74 CALM      30.48R
$$

NCZ012>017-030>032-161500-
NORTH CENTRAL AND EASTERN NORTH CAROLINA

CITY           SKY/WX    TMP DP  RH WIND       PRES   REMARKS
ROANOKE RAPIDS CLOUDY    39  32  75 E3        30.46S
RALEIGH        CLOUDY    44  27  51 NE5       30.44R
ELIZABETH CITY CLOUDY    41  39  93 NW7       30.46R
AHOSKIE*         N/A     38  33  82 CALM      30.48R
EDENTON*       DRIZZLE   43  38  82 CALM      30.47R
CURRITUCK*     CLOUDY    42  42 100 CALM      30.46R
KILL DEVIL HLS NOT AVBL
MANTEO         CLOUDY    44  41  90 NE7       30.43R
CAPE HATTERAS  CLOUDY    49  43  80 NE8       30.42R
TARBORO*       NOT AVBL
GOLDSBORO      CLOUDY    44  35  70 NE7       30.42R
WASHINGTON     CLOUDY    43  35  72 NE5       30.46R
GREENVILLE     CLOUDY    43  34  70 NE3       30.44R
NEW BERN       CLOUDY    44  39  82 NE8       30.44R
WILMINGTON     CLOUDY    48  38  68 NE7       30.41R
$$

VAZ048-161500-
ELSEWHERE

CITY           SKY/WX    TMP DP  RH WIND       PRES   REMARKS
HARRISBURG PA  PTSUNNY   26  22  84 CALM      30.47R
BALTIMORE      CLOUDY    34  26  72 E3        30.48R
ANNAPOLIS      CLOUDY    37  26  64 E5        30.48R
ANDREWS AFB    CLOUDY    37  28  70 CALM      30.46R
PHILADELPHIA   PTSUNNY   31  21  66 CALM      30.49S
HENDERSON NC   CLOUDY    39  26  60 E3        30.44R
GREENSBORO     CLOUDY    45  37  73 E6        30.40R
ROCKY MOUNT    CLOUDY    43  30  60 NE3       30.45R
$$

VAZ100-161500-
MARINE

STATION/POSITION TIME  TEMP    WIND        PRES    WAVE   SWELL
                       AIR SEA DIR/SP/G            HT/PER HT/PER
                 (UTC) (F)     (DEG/KT/KT) (MB)    (FT/S) (FT/S)
CAPE MAY NJ      1348   33 39   40/  2/  3 1031.8S
LEWES DE         1348   35 40   40/  5/  7 1032.4R
OCEAN-CITY-INLET 1348   38 42   30/  5/  7 1032.6R
WACHAPREAGUE VA  1348   40 43   20/  4/  6 1032.1R
THOMAS POINT MD  1300   35 38   50/  4/  4   N/A
GOOSES REEF MD   1400   37     120/  6/  6 1032.8
COVE POINT MD    1348   36     150/  4/  5 1032.8R
SOLOMONS ISLAND  1348   38 40  100/  5/  6   N/A
BISHOPS HEAD MD  1348   37 40   80/  3/  5 1032.4R
PINEY POINT MD   1348          110/  3/  4   N/A
POTOMAC MD       1400   38 40  100/  6/  6 1031.3    0
CAMBRIDGE MD     1348   35 38   60/  5/  6 1031.9R
LEWISETTA VA     1348   39 42   90/  4/  5 1031.7R
RAPPAHANNOCK LGT 1348           30/  5/  6 1032.5R
STINGRAY PT      1350   39      70/  4/  6 1032.3R
YORK RVR RNG VA  1348   40     350/  2/  2 1031.3R
YORKTOWN VA      1348   40 42   50/  2/  3 1031.6R
JAMESTOWN VA     1400   40 43   CALM  /  2   N/A     0
DOMINION TERM VA 1348   41        CALM     1032.1R
KIPTOPEKE VA     1348      42   20/  3/  5   N/A
CHES BAY BRIDGE  1348   41 42   50/  5/  6 1031.6R
CAPE HENRY VA    1348   42      40/  7/  8   N/A
WILLOUBY STN VA  1348   40      30/  5/  6 1032.8R
S CRANEY ISL VA  1348   40     300/  2/  3 1031.6R
CAPE HENRY BUOY  1342      47                N/A     2/ 8
OFFSHORE WE BUOY 1351      49                N/A     3/ 8   2/11
64NM E OF VA BCH 1250   49 57   20/ 12/ 14 1030.0    3/ 8   3/ 8
DUCK PIER NC     1348   44 44   40/ 12/ 13 1030.2R
44100 DUCK FRF   1335      46                N/A     3/ 5
44056 DUCK FRF   1330      45                N/A     3/ 6   2/11
OREGON INLET NC  1342   46 49   20/  8/ 12 1030.2R
HATTERAS NC      1348   47 53   20/  9/ 13 1029.7R
DIAMOND SHLS NC  1250   57 74   20/ 17/ 21 1028.8    5/ 6   2/ 9
CAPE LOOKOUT NC  1300   48      20/ 13/ 16 1028.8R
$$



USA.gov is the U.S. government's official web portal to all federal, state and local government web resources and services.